[[{"header":{"parameterUnit":"m.s-1","parameterCategory":1,"la1":30.2991,"la2":30.254,"lo1":-89.0895,"lo2":-89.0444,"dy":0.0017,"dx":0.0017,"nx":28,"ny":28,"refTime":"2023-08-03T21:00:00:Z","depth":0,"parameterNumber":2,"parameterNumberName":"U-component_of_WINDS"},"data":[0,0,0,0,0,0,0,0,0,0,0,0,0,0,0,0,0,0,0,0,0,0,0,0,0,0,0,0,0,0,0,0,0,0,0,0,0,0,0,0,0,0,0,0,0,0,0,0,0,0,0,0,0,0,0,0,0,0,6.2363,6.2365,0,6.2563,6.2565,6.2567,6.2496,6.2491,6.2487,6.2482,6.269,6.2699,6.2709,0,0,0,0,0,0,0,0,0,0,0,0,0,6.192,6.1928,6.2363,6.2365,6.2368,6.2562,6.2565,6.2568,6.2496,6.2491,6.2485,6.248,6.2686,6.2698,6.271,0,0,0,0,0,0,0,0,0,0,0,0,0,6.2115,6.1931,6.2362,6.2355,6.2357,6.2562,6.2565,6.2569,6.2497,6.2491,6.2484,6.2478,6.2683,6.2697,6.2711,6.2936,0,0,6.2756,6.2762,0,0,0,0,0,0,0,0,6.2104,6.2132,6.2354,6.2356,6.2358,6.2497,6.2485,6.2692,6.2499,6.2444,6.2482,6.2474,6.2631,6.265,6.2702,6.2945,6.2954,6.2757,6.2766,6.2772,6.2776,0,0,0,0,0,0,0,6.2091,6.2123,6.2442,6.2357,6.236,6.2343,6.2363,6.2524,6.2573,6.2448,6.2444,6.2468,6.2631,6.2688,6.2706,6.2957,6.2757,6.2769,6.2778,6.2784,6.3393,6.34,0,0,0,0,0,0,6.2076,6.2112,6.2436,6.2448,6.2212,6.2356,6.2379,6.2459,6.2571,6.2582,6.2474,6.2464,6.2667,6.2689,6.2713,6.2982,6.2772,6.2786,6.2794,6.3385,6.3394,6.3402,0,0,0,0,0,0,6.2067,6.2106,6.2428,6.2279,6.2318,6.2371,6.2462,6.2467,6.2524,6.259,6.2599,6.2523,6.2662,6.2693,6.288,6.2988,6.2792,6.2805,6.3376,6.3388,6.3398,6.3522,0,0,0,0,0,0,6.2055,6.2103,6.2189,6.2281,6.2327,6.2591,6.2469,6.2476,6.2549,6.2538,6.2639,6.2649,6.2659,6.2859,6.2895,6.3004,6.2817,6.3367,6.3382,6.3395,6.3508,6.3535,6.3559,0,0,0,0,0,6.2039,6.2217,6.2193,6.2233,6.2435,6.2598,6.2624,6.2631,6.2558,6.2644,6.2687,6.2646,6.2971,6.2879,6.2918,6.3034,6.336,6.3377,6.3394,6.3497,6.353,6.3558,0,0,0,0,0,0,6.2137,6.2229,6.2204,6.2417,6.25,6.2585,6.2695,6.2667,6.2773,6.2759,6.2765,6.2788,6.298,6.3026,6.2922,6.3256,6.3154,6.318,6.3219,6.3251,6.3276,6.3261,6.2829,0,0,0,0,0,6.2183,6.2307,6.2381,6.2561,6.2604,6.2642,6.2714,6.2712,6.2799,6.2834,6.289,6.2976,6.3097,6.3177,6.3292,6.3514,6.3534,6.3614,6.3639,6.366,6.3681,6.38,6.3835,6.3457,6.3457,6.3457,0,0,6.228,6.2345,6.2424,6.2582,6.2647,6.2775,6.2673,6.2813,6.2908,6.2855,6.3035,6.3079,6.3175,6.3381,6.3474,6.3425,6.379,6.3681,6.3697,6.3708,6.3821,6.3857,6.3888,6.3469,6.3466,6.3465,0,0,6.2522,6.2584,6.274,6.2806,6.2904,6.2928,6.2965,6.3055,6.3082,6.3262,6.3224,6.3338,6.3547,6.3616,6.3679,6.3945,6.3911,6.3983,6.4116,6.4231,6.4261,6.4288,6.4381,6.4414,6.4005,6.4005,6.4005,0,6.263,6.2821,6.2825,6.2968,6.3038,6.2995,6.3152,6.3216,6.3348,6.3397,6.334,6.36,6.3662,6.3882,6.3946,6.3999,6.4041,6.3971,6.4256,6.4283,6.4308,6.4397,6.4432,6.4013,6.4012,6.4011,6.401,0,6.2949,6.3082,6.3196,6.3322,6.3405,6.3555,6.3581,6.3665,6.3656,6.3686,6.3869,6.3942,6.407,6.4122,6.4116,6.4341,6.4307,6.4254,6.4151,6.4352,6.4435,6.4469,6.4024,6.4021,6.4019,6.4017,0,0,6.3259,6.3382,6.3424,6.348,6.3584,6.3687,6.3834,6.3958,6.4029,6.4121,6.4244,6.4421,6.4371,6.4443,6.4443,6.4545,6.4749,6.4479,6.4481,6.4525,6.4999,6.5037,6.5077,6.4727,6.4733,6.4739,6.499,0,6.3507,6.3765,6.3771,6.4007,6.4129,6.4089,6.4217,6.4295,6.4326,6.4434,6.447,6.4594,6.452,6.4563,6.4662,6.4703,6.4844,6.4685,6.4841,6.4846,6.4816,6.5121,6.5163,6.5397,6.5023,6.5029,6.5033,0,6.3832,6.3932,6.418,6.4263,6.4315,6.443,6.4543,6.4647,6.4734,6.4749,6.4828,6.4813,6.4963,6.4856,6.5062,6.4954,6.5018,6.5048,6.5057,6.5071,6.4951,6.5142,6.5472,6.5507,6.5085,6.5081,6.5077,0,6.4031,6.4228,6.44,6.4449,6.4552,6.4634,6.468,6.476,6.4834,6.4933,6.498,6.5096,6.516,6.525,6.5266,6.5187,6.5472,6.5367,6.5489,6.5489,6.555,6.5546,6.5894,6.5594,6.5594,6.5593,6.5592,0,6.4307,6.446,6.4491,6.4597,6.4766,6.4772,6.494,6.4981,6.5052,6.5165,6.5138,6.5245,6.5261,6.5371,6.5386,6.5553,6.5582,6.5599,6.56,6.5601,6.5598,6.5642,6.5625,6.5602,6.56,6.5598,6.5597,0,6.4558,6.4585,6.477,6.4852,6.4876,6.4997,6.5066,6.5168,6.5196,6.5339,6.5373,6.5418,6.5546,6.5572,6.5725,6.5734,6.5933,6.5919,6.5903,6.5901,6.602,6.6008,6.6407,6.6459,6.6127,6.613,6.6133,0,6.4732,6.4848,6.4942,6.5015,6.5065,6.5184,6.5258,6.5268,6.5346,6.5452,6.5541,6.5666,6.5767,6.5974,6.602,6.6136,6.6124,6.6256,6.6142,6.6137,6.6124,6.6116,6.6127,6.6278,6.6281,6.6284,6.6287,0,6.5038,6.5045,6.5152,6.5264,6.5353,6.5442,6.5526,6.5588,6.5609,6.5698,6.5828,6.5906,6.6061,6.6186,6.6301,6.6349,6.6322,6.6322,6.6356,6.6357,6.6342,6.635,6.5961,6.6313,6.631,6.6309,6.6307,6.6306,6.5255,6.5355,6.5435,6.5555,6.5619,6.5698,6.5797,6.5836,6.5944,6.607,6.607,6.6212,6.6294,6.6446,6.6501,6.6612,6.6571,6.662,6.6633,6.6644,6.6654,6.6325,6.6634,6.6633,6.6632,6.6632,6.6631,0,6.5557,6.5606,6.5716,6.5834,6.5928,6.5893,6.5984,6.6065,6.619,6.6268,6.6367,6.6516,6.6636,6.669,6.6809,6.6887,6.6877,6.6918,6.6911,6.6922,6.6686,6.6644,6.6923,6.6923,6.6923,6.6923,6.6923,6.6923,6.5725,6.5892,6.5909,6.6107,6.6155,6.6293,6.6347,6.642,6.6482,6.6648,6.6747,6.6782,6.685,6.6973,6.7081,6.7094,6.7138,6.7184,6.7191,6.6969,6.6939,6.6911,6.6871,6.7194,6.7194,6.7418,6.742,6.7421]},{"header":{"parameterUnit":"m.s-1","parameterCategory":1,"la1":30.2991,"la2":30.254,"lo1":-89.0895,"lo2":-89.0444,"dy":0.0017,"dx":0.0017,"nx":28,"ny":28,"refTime":"2023-08-03T21:00:00:Z","depth":0,"parameterNumber":3,"parameterNumberName":"V-component_of_WINDS"},"data":[0,0,0,0,0,0,0,0,0,0,0,0,0,0,0,0,0,0,0,0,0,0,0,0,0,0,0,0,0,0,0,0,0,0,0,0,0,0,0,0,0,0,0,0,0,0,0,0,0,0,0,0,0,0,0,0,0,0,0.9526,0.9527,0,0.9562,0.9562,0.9563,0.9534,0.9533,0.9532,0.953,0.9568,0.957,0.9572,0,0,0,0,0,0,0,0,0,0,0,0,0,0.9433,0.9435,0.9526,0.9527,0.9527,0.9562,0.9562,0.9563,0.9534,0.9533,0.9531,0.953,0.9568,0.957,0.9573,0,0,0,0,0,0,0,0,0,0,0,0,0,0.9472,0.9436,0.9526,0.9517,0.9517,0.9562,0.9562,0.9563,0.9535,0.9533,0.9531,0.9529,0.9567,0.957,0.9573,0.963,0,0,0.9583,0.9584,0,0,0,0,0,0,0,0,0.947,0.9475,0.9518,0.9518,0.9517,0.9542,0.9543,0.9585,0.9535,0.9528,0.953,0.9528,0.9561,0.9565,0.9575,0.9631,0.9633,0.9583,0.9585,0.9586,0.9587,0,0,0,0,0,0,0,0.9467,0.9474,0.954,0.9519,0.9518,0.9511,0.9515,0.9551,0.9554,0.9528,0.9526,0.9531,0.956,0.9572,0.9576,0.9633,0.9583,0.9586,0.9588,0.9589,0.9736,0.9738,0,0,0,0,0,0,0.9465,0.9472,0.9539,0.9542,0.9489,0.9514,0.9518,0.9536,0.9554,0.9555,0.9532,0.9529,0.9568,0.9572,0.9577,0.9644,0.9586,0.9589,0.9591,0.9734,0.9737,0.9739,0,0,0,0,0,0,0.9463,0.9472,0.9538,0.9506,0.9514,0.9518,0.9538,0.9537,0.9549,0.9557,0.9557,0.9544,0.9566,0.9573,0.9616,0.9645,0.9591,0.9594,0.9732,0.9735,0.9738,0.9779,0,0,0,0,0,0,0.9461,0.9471,0.9493,0.9507,0.9516,0.9577,0.954,0.9539,0.9555,0.9551,0.9568,0.9569,0.9565,0.9612,0.962,0.9649,0.9596,0.973,0.9733,0.9737,0.9775,0.9783,0.979,0,0,0,0,0,0.9458,0.9503,0.9494,0.9502,0.9543,0.9578,0.9584,0.9579,0.9557,0.9579,0.9583,0.9568,0.964,0.9616,0.9625,0.9655,0.9728,0.9732,0.9737,0.9772,0.9781,0.979,0,0,0,0,0,0,0.9494,0.9505,0.9495,0.9547,0.9562,0.9574,0.9601,0.9589,0.9611,0.9607,0.9599,0.9603,0.9649,0.9657,0.963,0.971,0.9681,0.9687,0.9704,0.9714,0.9721,0.9719,0.9599,0,0,0,0,0,0.9507,0.9535,0.9544,0.9588,0.9596,0.9597,0.9613,0.9607,0.9623,0.9629,0.9637,0.9653,0.9679,0.9696,0.9721,0.9775,0.9778,0.98,0.9808,0.9814,0.982,0.9848,0.9858,0.9754,0.9754,0.9754,0,0,0.9537,0.9546,0.9564,0.9596,0.9607,0.9636,0.9603,0.9635,0.9657,0.9634,0.9676,0.9682,0.9699,0.9748,0.977,0.9756,0.9849,0.9819,0.9824,0.9827,0.9854,0.9864,0.9872,0.9757,0.9756,0.9756,0,0,0.9605,0.9615,0.9653,0.9664,0.9681,0.9681,0.969,0.9703,0.9706,0.9748,0.9731,0.9756,0.9802,0.9814,0.9827,0.9897,0.9884,0.9905,0.9944,0.9972,0.998,0.9988,1.0013,1.0022,0.9911,0.9911,0.9911,0,0.9639,0.9682,0.9674,0.9707,0.9721,0.9701,0.9739,0.9751,0.9775,0.9785,0.9768,0.9824,0.9834,0.9885,0.9902,0.9913,0.9923,0.9904,0.998,0.9987,0.9994,1.0018,1.0027,0.9914,0.9913,0.9913,0.9913,0,0.9723,0.9753,0.9781,0.9804,0.9822,0.9857,0.9855,0.9873,0.9865,0.9867,0.9909,0.992,0.9946,0.9958,0.9951,1.0008,0.9998,0.9981,0.9951,1.0006,1.0029,1.0038,0.9917,0.9916,0.9916,0.9915,0,0,0.9816,0.9833,0.9844,0.9854,0.987,0.9893,0.9927,0.9952,0.9968,0.9984,1.0013,1.0051,1.0034,1.0048,1.0042,1.0067,1.0122,1.0046,1.0046,1.006,1.0185,1.0198,1.0209,1.0112,1.0114,1.0115,1.0183,0,0.9885,0.9944,0.9938,0.9994,1.0022,1.0002,1.0032,1.0045,1.0047,1.007,1.0072,1.0099,1.0075,1.0083,1.0106,1.011,1.0147,1.0105,1.0139,1.014,1.0136,1.0221,1.0236,1.03,1.0192,1.0193,1.0194,0,0.9974,0.9993,1.0052,1.0063,1.0074,1.0101,1.0123,1.0145,1.0159,1.0159,1.0173,1.0163,1.0197,1.0165,1.0212,1.0184,1.0197,1.02,1.0203,1.0206,1.0171,1.0227,1.032,1.033,1.0208,1.0207,1.0206,0,1.0036,1.0077,1.0117,1.0126,1.014,1.0159,1.0166,1.0178,1.0193,1.0211,1.0221,1.0243,1.0256,1.0273,1.0269,1.0247,1.0317,1.0285,1.0317,1.0318,1.0334,1.0333,1.0431,1.0342,1.0341,1.0341,1.0341,0,1.0114,1.0151,1.0145,1.017,1.0211,1.0202,1.0243,1.0247,1.0257,1.0283,1.0267,1.0291,1.0283,1.0307,1.0304,1.0343,1.0348,1.0349,1.0348,1.0351,1.0351,1.036,1.0356,1.0344,1.0343,1.0343,1.0342,0,1.0191,1.0189,1.0231,1.024,1.0243,1.0273,1.0281,1.0304,1.0304,1.0336,1.0343,1.0343,1.037,1.0367,1.0397,1.0395,1.0443,1.0436,1.0439,1.0437,1.047,1.0467,1.0577,1.0591,1.0493,1.0494,1.0495,0,1.0242,1.027,1.0281,1.0297,1.0304,1.033,1.0345,1.0337,1.0353,1.037,1.0391,1.0416,1.0436,1.0479,1.0482,1.0505,1.0499,1.0536,1.0502,1.0504,1.05,1.0498,1.0501,1.0543,1.0544,1.0545,1.0546,0,1.0331,1.0328,1.035,1.0371,1.0389,1.0406,1.042,1.0434,1.0427,1.0446,1.0473,1.0488,1.0518,1.0543,1.0564,1.0571,1.0557,1.0556,1.0565,1.0569,1.0569,1.0569,1.0457,1.0554,1.0553,1.0552,1.0552,1.0552,1.0397,1.042,1.0432,1.0456,1.0466,1.048,1.0502,1.0505,1.0527,1.055,1.0544,1.0574,1.0586,1.0613,1.0622,1.0645,1.0632,1.0644,1.0648,1.0651,1.0655,1.0564,1.0649,1.0649,1.0648,1.0648,1.0648,0,1.0486,1.0492,1.0514,1.0535,1.0554,1.0539,1.0554,1.0571,1.0598,1.061,1.0629,1.0659,1.0683,1.0687,1.071,1.0728,1.0722,1.0734,1.0733,1.0734,1.0666,1.0656,1.0738,1.0738,1.0738,1.0738,1.0738,1.0738,1.0534,1.0573,1.0571,1.0615,1.062,1.065,1.066,1.0672,1.0682,1.0716,1.0736,1.0738,1.0746,1.0769,1.079,1.079,1.08,1.0814,1.0812,1.0748,1.0739,1.0731,1.0722,1.0816,1.0816,1.0879,1.088,1.088]}]]